Location: Caltech
(34.1382°N, 118.1253°W)
Time: 21:49:30
(UTC-07:00)

Cosmos 1626 - Visible Passes

Search period start: 26 April 2018 00:00
Search period end: 06 May 2018 00:00
Orbit: 494 x 499 km, 82.5° (Epoch: 26 April)

Date Brightness Start Highest point End Pass type
(mag) Time Alt. Az. Time Alt. Az. Time Alt. Az.
29 Apr 4.7 05:33:43 10° SE 05:36:45 24° E 05:39:48 10° NE visible
30 Apr 5.1 05:13:27 10° SE 05:15:51 17° E 05:18:15 10° NE visible
01 May 5.5 04:53:50 10° ESE 04:54:56 11° E 04:56:03 10° ENE visible
04 May 2.5 05:23:08 10° S 05:26:47 66° E 05:30:29 10° NNE visible
05 May 3.4 05:02:19 10° SSE 05:05:49 41° E 05:09:20 10° NNE visible
